2015-04-11 00:03:42 r, 18.29m,0000000004Hz,0000107484c,0000000.233s, 022.5C,00002195
2015-04-11 00:13:42 r, 18.31m,0000000004Hz,0000109532c,0000000.238s, 022.5C,00002195
2015-04-11 00:23:42 r, 18.34m,0000000004Hz,0000112393c,0000000.244s, 022.5C,00002195
2015-04-11 00:33:42 r, 18.32m,0000000004Hz,0000110437c,0000000.240s, 022.2C,00002195
2015-04-11 00:43:42 r, 18.27m,0000000005Hz,0000104569c,0000000.227s, 022.2C,00002195
2015-04-11 00:53:42 r, 18.25m,0000000004Hz,0000102721c,0000000.223s, 022.2C,00002195
2015-04-11 01:03:42 r, 18.32m,0000000004Hz,0000110372c,0000000.240s, 022.2C,00002195
2015-04-11 01:13:42 r, 18.37m,0000000004Hz,0000115182c,0000000.250s, 021.9C,00002195
2015-04-11 01:23:42 r, 18.38m,0000000004Hz,0000116068c,0000000.252s, 021.9C,00002195
2015-04-11 01:33:42 r, 18.34m,0000000004Hz,0000112235c,0000000.244s, 021.9C,00002195
2015-04-11 01:43:42 r, 18.32m,0000000004Hz,0000110268c,0000000.239s, 021.9C,00002195
2015-04-11 01:53:42 r, 18.27m,0000000005Hz,0000104943c,0000000.228s, 021.9C,00002195
2015-04-11 02:03:42 r, 18.28m,0000000004Hz,0000105490c,0000000.229s, 021.5C,00002195
2015-04-11 02:13:42 r, 18.36m,0000000004Hz,0000114239c,0000000.248s, 021.5C,00002195
2015-04-11 02:23:42 r, 18.38m,0000000004Hz,0000116428c,0000000.253s, 021.5C,00002195
2015-04-11 02:33:42 r, 18.36m,0000000004Hz,0000114002c,0000000.247s, 021.2C,00002195
2015-04-11 02:43:42 r, 18.27m,0000000004Hz,0000105250c,0000000.228s, 021.2C,00002195
2015-04-11 02:53:42 r, 18.18m,0000000005Hz,0000096968c,0000000.210s, 020.9C,00002195
2015-04-11 03:03:42 r, 18.26m,0000000004Hz,0000104652c,0000000.227s, 020.9C,00002195
2015-04-11 03:13:42 r, 18.12m,0000000005Hz,0000092272c,0000000.200s, 020.9C,00002195
2015-04-11 03:23:42 r, 17.63m,0000000008Hz,0000058550c,0000000.127s, 020.9C,00002195
2015-04-11 03:33:42 r, 17.99m,0000000006Hz,0000082426c,0000000.179s, 020.9C,00002195
2015-04-11 03:43:42 r, 18.18m,0000000004Hz,0000097213c,0000000.211s, 020.6C,00002195
2015-04-11 03:53:42 r, 18.25m,0000000005Hz,0000103969c,0000000.226s, 020.3C,00002195
2015-04-11 04:03:42 r, 18.11m,0000000005Hz,0000091550c,0000000.199s, 019.9C,00002195
2015-04-11 04:13:42 r, 17.84m,0000000006Hz,0000071379c,0000000.155s, 019.9C,00002195
2015-04-11 04:23:42 r, 17.97m,0000000005Hz,0000080570c,0000000.175s, 019.9C,00002195
2015-04-11 04:33:42 r, 18.23m,0000000004Hz,0000102329c,0000000.222s, 019.9C,00002195
2015-04-11 04:43:42 r, 18.27m,0000000004Hz,0000106235c,0000000.231s, 019.9C,00002195
2015-04-11 04:53:42 r, 18.25m,0000000004Hz,0000103800c,0000000.225s, 019.9C,00002195
2015-04-11 05:03:42 r, 18.26m,0000000004Hz,0000104731c,0000000.227s, 020.3C,00002195
2015-04-11 05:13:42 r, 18.20m,0000000005Hz,0000099786c,0000000.217s, 020.3C,00002195
2015-04-11 05:23:42 r, 18.18m,0000000004Hz,0000097691c,0000000.212s, 020.3C,00002195
2015-04-11 05:33:42 r, 17.98m,0000000005Hz,0000081294c,0000000.176s, 019.9C,00002195
2015-04-11 05:43:42 r, 17.44m,0000000010Hz,0000049007c,0000000.106s, 019.9C,00002195
2015-04-11 05:53:42 r, 16.39m,0000000024Hz,0000018881c,0000000.041s, 019.9C,00002195
2015-04-11 06:03:42 r, 14.74m,0000000111Hz,0000004105c,0000000.009s, 019.6C,00002195
2015-04-11 06:13:42 r, 12.71m,0000000728Hz,0000000000c,0000000.000s, 019.3C,00002195
2015-04-11 06:23:42 r, 10.76m,0000004439Hz,0000000000c,0000000.000s, 019.3C,00002195
2015-04-11 06:33:42 r, 09.05m,0000021464Hz,0000000000c,0000000.000s, 019.3C,00002195
2015-04-11 06:43:42 r, 07.78m,0000068819Hz,0000000000c,0000000.000s, 019.3C,00002195
2015-04-11 06:53:42 r, 06.91m,0000152967Hz,0000000000c,0000000.000s, 019.3C,00002195
2015-04-11 07:03:42 r, 06.33m,0000261408Hz,0000000000c,0000000.000s, 019.3C,00002195
2015-04-11 07:13:42 r, 05.94m,0000375928Hz,0000000000c,0000000.000s, 019.3C,00002195
2015-04-11 07:23:42 r, 00.00m,0000490627Hz,0000000000c,0000000.000s, 019.3C,00002195
2015-04-11 07:33:42 r, 00.00m,0000563100Hz,0000000000c,0000000.000s, 019.6C,00002195
2015-04-11 07:43:42 r, 00.00m,0000563000Hz,0000000000c,0000000.000s, 019.6C,00002195
2015-04-11 07:53:42 r, 00.00m,0000563117Hz,0000000000c,0000000.000s, 019.9C,00002195
2015-04-11 08:03:42 r, 00.00m,0000563138Hz,0000000000c,0000000.000s, 020.3C,00002195
2015-04-11 08:13:42 r, 00.00m,0000563201Hz,0000000000c,0000000.000s, 020.9C,00002195
2015-04-11 08:23:42 r, 00.00m,0000563176Hz,0000000000c,0000000.000s, 020.9C,00002195
2015-04-11 08:33:42 r, 00.00m,0000563308Hz,0000000000c,0000000.000s, 021.5C,00002195
2015-04-11 08:43:42 r, 00.00m,0000563218Hz,0000000000c,0000000.000s, 021.9C,00002195
2015-04-11 08:53:42 r, 00.00m,0000563274Hz,0000000000c,0000000.000s, 022.2C,00002195
2015-04-11 09:03:42 r, 00.00m,0000563482Hz,0000000000c,0000000.000s, 023.2C,00002195
2015-04-11 09:13:42 r, 00.00m,0000563845Hz,0000000000c,0000000.000s, 025.1C,00002195
2015-04-11 09:23:42 r, 00.00m,0000564136Hz,0000000000c,0000000.000s, 027.7C,00002195
2015-04-11 09:33:42 r, 00.00m,0000564402Hz,0000000000c,0000000.000s, 029.3C,00002195
2015-04-11 09:43:42 r, 00.00m,0000564445Hz,0000000000c,0000000.000s, 031.2C,00002195
2015-04-11 09:53:42 r, 00.00m,0000564630Hz,0000000000c,0000000.000s, 032.2C,00002195
2015-04-11 10:03:42 r, 00.00m,0000564686Hz,0000000000c,0000000.000s, 033.5C,00002195
2015-04-11 10:13:42 r, 00.00m,0000564868Hz,0000000000c,0000000.000s, 034.8C,00002195
2015-04-11 10:23:42 r, 00.00m,0000564939Hz,0000000000c,0000000.000s, 036.0C,00002195
2015-04-11 10:33:42 r, 00.00m,0000564999Hz,0000000000c,0000000.000s, 037.0C,00002195
2015-04-11 10:43:42 r, 00.00m,0000565154Hz,0000000000c,0000000.000s, 038.3C,00002195
2015-04-11 10:53:42 r, 00.00m,0000565200Hz,0000000000c,0000000.000s, 039.0C,00002195
2015-04-11 11:03:42 r, 00.00m,0000565258Hz,0000000000c,0000000.000s, 039.9C,00002195
2015-04-11 11:13:42 r, 00.00m,0000565418Hz,0000000000c,0000000.000s, 040.9C,00002195
2015-04-11 11:23:42 r, 00.00m,0000565422Hz,0000000000c,0000000.000s, 041.9C,00002195
2015-04-11 11:33:42 r, 00.00m,0000565407Hz,0000000000c,0000000.000s, 042.2C,00002195
2015-04-11 11:43:42 r, 00.00m,0000565488Hz,0000000000c,0000000.000s, 042.5C,00002195
2015-04-11 11:53:42 r, 00.00m,0000565487Hz,0000000000c,0000000.000s, 043.1C,00002195
2015-04-11 12:03:42 r, 00.00m,0000565456Hz,0000000000c,0000000.000s, 043.8C,00002195
2015-04-11 12:13:42 r, 00.00m,0000565582Hz,0000000000c,0000000.000s, 044.4C,00002195
2015-04-11 12:23:42 r, 00.00m,0000565545Hz,0000000000c,0000000.000s, 044.8C,00002195
2015-04-11 12:33:42 r, 00.00m,0000565581Hz,0000000000c,0000000.000s, 045.1C,00002195
2015-04-11 12:43:42 r, 00.00m,0000565652Hz,0000000000c,0000000.000s, 046.0C,00002195
2015-04-11 12:53:42 r, 00.00m,0000565694Hz,0000000000c,0000000.000s, 046.4C,00002195
2015-04-11 13:03:42 r, 00.00m,0000565679Hz,0000000000c,0000000.000s, 046.4C,00002195
2015-04-11 13:13:42 r, 00.00m,0000565631Hz,0000000000c,0000000.000s, 046.4C,00002195
2015-04-11 13:23:42 r, 00.00m,0000565678Hz,0000000000c,0000000.000s, 046.4C,00002195
2015-04-11 13:33:42 r, 00.00m,0000565728Hz,0000000000c,0000000.000s, 046.7C,00002195
2015-04-11 13:43:42 r, 00.00m,0000565640Hz,0000000000c,0000000.000s, 046.7C,00002195
2015-04-11 13:53:42 r, 00.00m,0000565652Hz,0000000000c,0000000.000s, 046.7C,00002195
2015-04-11 14:03:42 r, 00.00m,0000565753Hz,0000000000c,0000000.000s, 047.3C,00002195
2015-04-11 14:13:42 r, 00.00m,0000565640Hz,0000000000c,0000000.000s, 047.3C,00002195
2015-04-11 14:23:42 r, 00.00m,0000565658Hz,0000000000c,0000000.000s, 047.3C,00002195
2015-04-11 14:33:42 r, 00.00m,0000565686Hz,0000000000c,0000000.000s, 047.7C,00002195
2015-04-11 14:43:42 r, 00.00m,0000565685Hz,0000000000c,0000000.000s, 047.3C,00002195
2015-04-11 14:53:42 r, 00.00m,0000565581Hz,0000000000c,0000000.000s, 047.0C,00002195
2015-04-11 15:03:42 r, 00.00m,0000565632Hz,0000000000c,0000000.000s, 047.0C,00002195
2015-04-11 15:13:42 r, 00.00m,0000565693Hz,0000000000c,0000000.000s, 047.0C,00002195
2015-04-11 15:23:42 r, 00.00m,0000565615Hz,0000000000c,0000000.000s, 046.7C,00002195
2015-04-11 15:33:42 r, 00.00m,0000565579Hz,0000000000c,0000000.000s, 046.7C,00002195
2015-04-11 15:43:42 r, 00.00m,0000565522Hz,0000000000c,0000000.000s, 046.7C,00002195
2015-04-11 15:53:42 r, 00.00m,0000565518Hz,0000000000c,0000000.000s, 046.4C,00002195
2015-04-11 16:03:42 r, 00.00m,0000565468Hz,0000000000c,0000000.000s, 046.0C,00002195
2015-04-11 16:13:42 r, 00.00m,0000565480Hz,0000000000c,0000000.000s, 046.0C,00002195
2015-04-11 16:23:42 r, 00.00m,0000565396Hz,0000000000c,0000000.000s, 045.4C,00002195
2015-04-11 16:33:42 r, 00.00m,0000565334Hz,0000000000c,0000000.000s, 045.1C,00002195
2015-04-11 16:43:42 r, 00.00m,0000565279Hz,0000000000c,0000000.000s, 044.4C,00002195
2015-04-11 16:53:42 r, 00.00m,0000565278Hz,0000000000c,0000000.000s, 043.8C,00002195
2015-04-11 17:03:42 r, 00.00m,0000565246Hz,0000000000c,0000000.000s, 043.1C,00002195
2015-04-11 17:13:42 r, 00.00m,0000565249Hz,0000000000c,0000000.000s, 042.8C,00002195
2015-04-11 17:23:42 r, 00.00m,0000565116Hz,0000000000c,0000000.000s, 042.2C,00002195
2015-04-11 17:33:42 r, 00.00m,0000565087Hz,0000000000c,0000000.000s, 041.9C,00002195
2015-04-11 17:43:42 r, 00.00m,0000565074Hz,0000000000c,0000000.000s, 041.5C,00002195
2015-04-11 17:53:42 r, 00.00m,0000564967Hz,0000000000c,0000000.000s, 040.9C,00002195
2015-04-11 18:03:42 r, 00.00m,0000564848Hz,0000000000c,0000000.000s, 040.6C,00002195
2015-04-11 18:13:42 r, 00.00m,0000564787Hz,0000000000c,0000000.000s, 039.3C,00002195
2015-04-11 18:23:42 r, 00.00m,0000564778Hz,0000000000c,0000000.000s, 039.3C,00002195
2015-04-11 18:33:42 r, 00.00m,0000564738Hz,0000000000c,0000000.000s, 039.0C,00002195
2015-04-11 18:43:42 r, 00.00m,0000564612Hz,0000000000c,0000000.000s, 038.0C,00002195
2015-04-11 18:53:42 r, 00.00m,0000564580Hz,0000000000c,0000000.000s, 037.7C,00002195
2015-04-11 19:03:42 r, 00.00m,0000564553Hz,0000000000c,0000000.000s, 038.0C,00002195
2015-04-11 19:13:42 r, 00.00m,0000564616Hz,0000000000c,0000000.000s, 038.3C,00002195
2015-04-11 19:23:42 r, 00.00m,0000564602Hz,0000000000c,0000000.000s, 037.3C,00002195
2015-04-11 19:33:42 r, 00.00m,0000564506Hz,0000000000c,0000000.000s, 036.7C,00002195
2015-04-11 19:43:42 r, 05.91m,0000384735Hz,0000000000c,0000000.000s, 036.0C,00002195
2015-04-11 19:53:42 r, 06.39m,0000246843Hz,0000000000c,0000000.000s, 035.1C,00002195
2015-04-11 20:03:43 r, 06.91m,0000154366Hz,0000000000c,0000000.000s, 034.4C,00002195
2015-04-11 20:13:43 r, 07.66m,0000076980Hz,0000000000c,0000000.000s, 033.8C,00002195
2015-04-11 20:23:43 r, 08.71m,0000029133Hz,0000000000c,0000000.000s, 032.8C,00002195
2015-04-11 20:33:43 r, 10.27m,0000006929Hz,0000000000c,0000000.000s, 032.5C,00002195
2015-04-11 20:43:43 r, 12.18m,0000001199Hz,0000000000c,0000000.000s, 032.2C,00002195
2015-04-11 20:53:43 r, 14.25m,0000000177Hz,0000000000c,0000000.000s, 031.5C,00002195
2015-04-11 21:03:43 r, 16.14m,0000000031Hz,0000014909c,0000000.032s, 031.2C,00002195
2015-04-11 21:13:43 r, 17.13m,0000000013Hz,0000037372c,0000000.081s, 030.9C,00002195
2015-04-11 21:23:43 r, 17.78m,0000000007Hz,0000067162c,0000000.146s, 030.6C,00002195
2015-04-11 21:33:43 r, 18.01m,0000000006Hz,0000083118c,0000000.180s, 030.2C,00002195
2015-04-11 21:43:43 r, 18.08m,0000000005Hz,0000089275c,0000000.194s, 029.9C,00002195
2015-04-11 21:53:43 r, 18.02m,0000000005Hz,0000084084c,0000000.182s, 029.9C,00002195
2015-04-11 22:03:43 r, 18.10m,0000000005Hz,0000090209c,0000000.196s, 029.6C,00002195
2015-04-11 22:13:43 r, 18.11m,0000000005Hz,0000091299c,0000000.198s, 029.3C,00002195
2015-04-11 22:23:43 r, 18.12m,0000000005Hz,0000092063c,0000000.200s, 029.3C,00002195
2015-04-11 22:33:43 r, 18.11m,0000000005Hz,0000091296c,0000000.198s, 029.0C,00002195
2015-04-11 22:43:43 r, 18.19m,0000000005Hz,0000098119c,0000000.213s, 028.6C,00002195
2015-04-11 22:53:43 r, 18.21m,0000000005Hz,0000100816c,0000000.219s, 028.6C,00002195
2015-04-11 23:03:43 r, 18.22m,0000000005Hz,0000100842c,0000000.219s, 028.3C,00002195
2015-04-11 23:13:43 r, 18.14m,0000000004Hz,0000093312c,0000000.203s, 028.0C,00002195
2015-04-11 23:23:43 r, 18.21m,0000000005Hz,0000100134c,0000000.217s, 027.7C,00002195
2015-04-11 23:33:43 r, 18.11m,0000000005Hz,0000090337c,0000000.196s, 027.7C,00002195
2015-04-11 23:43:43 r, 17.96m,0000000006Hz,0000079663c,0000000.173s, 027.3C,00002195
2015-04-11 23:53:43 r, 18.06m,0000000005Hz,0000087264c,0000000.189s, 027.0C,00002195
